Showing default

TOMORROW-S3, 62392

Orbit data source: Space-Track

TOMORROW-S3, 62392 is a payload satellite owned by Tomorrow.io (US) in LEO that was launched on Sat, 21 Dec 2024 UTC via an FALCON 9 launch vehicle from the Air Force Western Test Range (AFWTR). Payload-class satellites include a variety of spacecraft equipped with specific instruments for various scientific and technological missions. These include communications satellites like Starlink; space stations such as the ISS; scientific satellites like the Hubble; Earth observation satellites from companies like Planet Labs, Umbra, and HawkEye 360; GPS; miniature CubeSats for education and research; and military/defense satellites.

Loading next visibility...
Identifier
62392, 2024-247R
Orbit
LEO
Country
Flag of USUS
Related business
Manufacturer
Blue Canyon
Mission
Operational Commercial Weather
Bus & Motor
CUBESAT 6U, Unknown motor
Mass
12 kg wet, 12 kg dry
Launch date (UTC)
2024-12-21 (1 year ago)
Launch vehicle
FALCON 9
Launch site
Air Force Western Test Range (AFWTR)
Object type
Payload
Rocket body
Debris
Shape & HBR
Box + 2 Pan, 1.0 m
Radar Cross Section
0.138 m², Small (<0.1 m²)

Expand to show TLE details & history
Last TLE update: 11 hours ago

TLE from 11 hours ago
0 TOMORROW-S3
1 62392U 24247R   25346.93628569  .00009882  00000-0  38815-3 0  9994
2 62392  45.0056 229.9351 0001378 121.4740 238.6277 15.25976794 54473
Epoch: 2025-12-12T22:28Z
TLE epoch observation values (Epoch: 2025-12-12T22:28:15.083Z)
Latitude
-0.00005°
Longitude
171.00145°
Altitude
488.346 km
Speed
7.622 km/s
True Right ascension
15h 19m 44s
True Declination
0° 00' 00"
Sunlit
Object was in daylight at epoch
Visualization orbit readout
Latitude
Unknown
Longitude
Unknown
Altitude
Unknown
Speed
Unknown
Apparent Right ascension
Unknown
Apparent Declination
Unknown
Sunlit
N/A
Visualization observer readout
Local Sidereal Time
07:35:03
Azimuth
Unknown
Elevation
Unknown
Doppler factor
Unknown
Orbital elements
Apogee altitude
490.407 km
Perigee altitude
488.515 km
Semi-major axis
6,867.598 km
Eccentricity
0.00014
Inclination
45.0056°
RAAN
229.9351°
Arg. of periapsis
121.474°
True anomaly
238.61422°
Mean anomaly
238.6277°
Eccentric anomaly
238.62096°
Mean motion
3.81361 °/min
Orbital period
94.4 mins
BSTAR
0.00038815
Loading maneuver chart data...
Computing Atmospheric mass density...
Loading historical data...
Loading historical data...
Loading historical data...
Loading historical data...
Loading historical data...
Loading historical data...
Loading historical data...

Documentation

Showing up to 5 results
|